"Pseudo-MPEC" for C0FLXZ5

Created 2023 Jan 27 11:22:04 UT using Find_Orb

Click here for an explanation of pseudo-MPECs

 
 Astrometry: 
     C0FLXZ5* C2023 01 25YA/3/l9O[iAstrometryEP,853^*nIA7BH++OWj.11qEtMkh#MW#V00
     C0FLXZ5  C2023 01 25=n8*RBSUcjxfO];`'#q9upgbUYi3[l*)^5[[h7x2redacted;id;V00
     C0FLXZ5  C2023 01 25%!.]L!Xwh49Dn(1)N;32PHGr_F*(dE/D='Mr9J`M=^uEo%sel_o:V00
     C0FLXZ5  C2023 01 25-h-L(clickKLkoLbPSZCWuKt3Fs]%lHq,q2m9fTfH%l:OrVYk#]@V00
     C0FLXZ5 KC2023 01 25.26523 04 45 19.72 +07 29 56.0    ~1P8M 23.3 RoNEOCP291
     C0FLXZ5 KC2023 01 25.28017 04 45 20.32 +07 29 17.8    ~1P8M 22.3 RoNEOCP291
     C0FLXZ5 |C2023 01 26N2St+6TR8K8here07+I#_i[tm.PM4A*q;X]o,C+`ux23.Ir1'W!-807
     C0FLXZ5 |C2023 01 26O6'wD1JX-.*HfA=rd#Y9!ELcHDtOUO6+@q(d),w6n[8ZV,A3?Z4d807
     C0FLXZ5 |C2023 01 26aQg_%p;forUauX\9;BjQ6%DJ\T0#gP]UnD,[*1,y@mS;Ki/geSrU807
     C0FLXZ5 KC2023 01 26.15179 04 46 02.49 +06 52 48.8    ~1Q67 22.3 RoNEOCP291
     C0FLXZ5 KC2023 01 26.17779 04 46 03.48 +06 51 45.3    ~1Q67 23.3 RoNEOCP291
     C0FLXZ5 |C2023 01 27Y%;p57?Ul4TRI8Uk^xTNgcoRpA-O8fjbexplanation!bArF/yX=807
     C0FLXZ5 |C2023 01 27hc!ja/rNrAZCcgr!S=c.Y=)Qd81=K)Zml5]SE0[qQ;:n\3oi*3xc807
     C0FLXZ5 |C2023 01 27*[oHNeydEFV5]d4mE+y;mwg=gq*?44)](dH'NH'^7eHKXH0Wc0K:807
     C0FLXZ5 KC2023 01 27.21909 04 46 55.55 +06 09 25.6    ~1R6q 22.6 RoNEOCP291
     C0FLXZ5 KC2023 01 27.23643 04 46 56.34 +06 08 44.4    ~1R6q 22.0 RoNEOCP291
     C0FLXZ5 KC2023 01 27.25378 04 46 57.06 +06 08 02.5    ~1R6q 22.0 RoNEOCP291

Station data:
(291) LPL/Spacewatch II  (N31.961669 W111.599905)  US/Arizona.  Observers J.
   V. Scotti, R. S. McMillan. 1.8-m f/2.7 reflector + CCD.
(807) Cerro Tololo Observatory, La Serena  (S30.169133 W70.805900)  Chile.
   Observer R. Holmes. 0.61-m f/6.5 astrograph + CCD.
(V00) Kitt Peak-Bok  (N31.963125 W111.600190)  US/Arizona.  Observers T. A.
   Pruyne, B. M. Africano, E. J. Christensen, G. A. Farneth, D. C. Fuls, A.
   R. Gibbs, A. D. Grauer, H. Gröller, J. A. Johnson, R. A. Kowalski, S. M.
   Larson, G. J. Leonard, D. Rankin, R. L. Seaman, F. C. Shelly, K. W.
   Wierzchoś. 2.25-m reflector + CCD.

Orbital elements:  C0FLXZ5
   Perihelion 2023 Mar 3.76892 +/- 0.447 TT = 18:27:14 (JD 2460007.26892)
Epoch 2023 Jan 27.0 TT = JDT 2459971.5   Earth MOID: 0.2322   Ma: 0.0690
M 338.72084574 +/- 0.50             (J2000 ecliptic)             AutoNEOCP
n   0.59490623 +/- 0.00726          Peri.  223.62040 +/- 0.44
a   1.40013648 +/- 0.0114           Node   279.88689 +/- 0.10
e   0.1566524 +/- 0.00539           Incl.   17.96906 +/- 0.18
P   1.66/605.13d           H 22.91  G  0.15   U  9.4
q 1.18080170 +/- 0.00283    Q 1.61947125 +/- 0.0206
From 17 observations 2023 Jan. 25-27; mean residual 0".27
Residuals in arcseconds: 
230125 V00  .44+  .13+    230126 807  .02-  .14-    230127 807  .10-  .11+    
230125 V00  .14-  .14+    230126 807  .03+  .16+    230127 807  .51+  .18-    
230125 V00  .36+  .02+    230126 807  .08+  .03-    230127 291  .32-  .24-    
230125 V00  .38-  .10-    230126 291  .36+  .32-    230127 291  .18+  .26+    
230125 291  .49-  .16-    230126 291  .05-  .63+    230127 291  .52-  .09+    
230125 291  .04-  .14-    230127 807  .17+  .21-    

Ephemerides (geocentric):
Date (UTC) HH   RA             Dec           delta  r     elong  mag " sig PA
---- --------  ------------   ------------  ------ ------ -----  --- --------
2023 01 27 11  04 47 08.678   +06 00 05.48  .33761 1.2010 122.7 22.7 .126  45
2023 01 27 12  04 47 10.885   +05 58 26.32  .33776 1.2009 122.6 22.7 .140  43
2023 01 27 13  04 47 13.098   +05 56 47.30  .33792 1.2009 122.6 22.7 .155  40
2023 01 27 14  04 47 15.317   +05 55 08.40  .33807 1.2008 122.5 22.7 .170  39
2023 01 27 15  04 47 17.541   +05 53 29.62  .33823 1.2008 122.5 22.7 .186  37
2023 01 27 16  04 47 19.771   +05 51 50.98  .33838 1.2007 122.5 22.7 .203  35
2023 01 27 17  04 47 22.006   +05 50 12.46  .33854 1.2007 122.4 22.7 .220  34
2023 01 27 18  04 47 24.247   +05 48 34.07  .33869 1.2007 122.4 22.7 .238  33
2023 01 27 19  04 47 26.493   +05 46 55.81  .33885 1.2006 122.3 22.7 .257  32
2023 01 27 20  04 47 28.746   +05 45 17.67  .33900 1.2006 122.3 22.7 .276  31
2023 01 27 21  04 47 31.003   +05 43 39.67  .33916 1.2005 122.3 22.7 .296  31
2023 01 27 22  04 47 33.266   +05 42 01.79  .33931 1.2005 122.2 22.7 .316  30
2023 01 27 23  04 47 35.535   +05 40 24.03  .33947 1.2004 122.2 22.7 .337  29
2023 01 28 00  04 47 37.810   +05 38 46.40  .33962 1.2004 122.1 22.7 .359  29
2023 01 28 01  04 47 40.090   +05 37 08.90  .33978 1.2003 122.1 22.7 .381  28
2023 01 28 02  04 47 42.375   +05 35 31.53  .33993 1.2003 122.1 22.7 .403  28
2023 01 28 03  04 47 44.666   +05 33 54.28  .34009 1.2002 122.0 22.7 .426  27
2023 01 28 04  04 47 46.963   +05 32 17.16  .34025 1.2002 122.0 22.7 .450  27
2023 01 28 05  04 47 49.265   +05 30 40.17  .34040 1.2002 121.9 22.7 .474  27
2023 01 28 06  04 47 51.572   +05 29 03.30  .34056 1.2001 121.9 22.7 .499  26
2023 01 28 07  04 47 53.885   +05 27 26.56  .34071 1.2001 121.9 22.7 .524  26
2023 01 28 08  04 47 56.204   +05 25 49.94  .34087 1.2000 121.8 22.7 .550  26
2023 01 28 09  04 47 58.528   +05 24 13.45  .34103 1.2000 121.8 22.7 .576  26
2023 01 28 10  04 48 00.857   +05 22 37.09  .34118 1.1999 121.7 22.7 .603  25
2023 01 28 11  04 48 03.192   +05 21 00.85  .34134 1.1999 121.7 22.7 .630  25
2023 01 28 12  04 48 05.533   +05 19 24.73  .34150 1.1998 121.7 22.7 .658  25
2023 01 28 13  04 48 07.879   +05 17 48.74  .34165 1.1998 121.6 22.7 .686  25
2023 01 28 14  04 48 10.230   +05 16 12.88  .34181 1.1997 121.6 22.7 .715  24
2023 01 28 15  04 48 12.587   +05 14 37.14  .34197 1.1997 121.6 22.7 .745  24
2023 01 28 16  04 48 14.949   +05 13 01.53  .34212 1.1997 121.5 22.7 .774  24
2023 01 28 17  04 48 17.317   +05 11 26.04  .34228 1.1996 121.5 22.7 .805  24
2023 01 28 18  04 48 19.690   +05 09 50.68  .34244 1.1996 121.4 22.7 .836  24
2023 01 28 19  04 48 22.068   +05 08 15.44  .34260 1.1995 121.4 22.7 .867  24
2023 01 28 20  04 48 24.452   +05 06 40.33  .34275 1.1995 121.4 22.7 .899  24
2023 01 28 21  04 48 26.842   +05 05 05.34  .34291 1.1994 121.3 22.7 .931  23
2023 01 28 22  04 48 29.236   +05 03 30.47  .34307 1.1994 121.3 22.7 .964  23
2023 01 28 23  04 48 31.636   +05 01 55.73  .34323 1.1993 121.2 22.7 1.00  23
2023 01 29 00  04 48 34.042   +05 00 21.12  .34338 1.1993 121.2 22.7 1.03  23
2023 01 29 01  04 48 36.453   +04 58 46.63  .34354 1.1993 121.2 22.7 1.07  23
2023 01 29 02  04 48 38.869   +04 57 12.26  .34370 1.1992 121.1 22.7 1.10  23
2023 01 29 03  04 48 41.290   +04 55 38.01  .34386 1.1992 121.1 22.7 1.14  23
2023 01 29 04  04 48 43.717   +04 54 03.89  .34402 1.1991 121.1 22.7 1.17  23
2023 01 29 05  04 48 46.149   +04 52 29.89  .34418 1.1991 121.0 22.7 1.21  23
2023 01 29 06  04 48 48.587   +04 50 56.02  .34433 1.1990 121.0 22.8 1.24  23
2023 01 29 07  04 48 51.030   +04 49 22.27  .34449 1.1990 120.9 22.8 1.28  23
2023 01 29 08  04 48 53.478   +04 47 48.64  .34465 1.1989 120.9 22.8 1.32  22
2023 01 29 09  04 48 55.931   +04 46 15.14  .34481 1.1989 120.9 22.8 1.36  22
2023 01 29 10  04 48 58.390   +04 44 41.76  .34497 1.1989 120.8 22.8 1.40  22